Theta_e
305 306 306 305 306 303 305 305 305 305 306 308 312 312 312 313 313 313 312 312 313 313 313 314 314 314 313 312 311 311 313 314 316 316 314 315 318 320 318 315 315 314 314 313 313 314 314
304 306 306 306 306 305 303 305 305 306 307 307 309 312 312 313 313 312 312 312 312 312 313 313 312 312 313 311 311 312 310 313 315 312 313 315 319 318 316 315 315 314 313 313 312 312 312
305 304 305 306 306 306 305 303 305 306 307 306 308 311 311 312 312 311 309 309 308 310 311 311 312 311 311 310 309 309 310 310 310 312 314 317 317 315 314 313 314 313 313 313 313 313 312
305 305 304 305 306 307 306 305 304 307 307 306 308 309 309 310 312 311 311 309 309 310 308 308 309 310 307 309 309 309 309 310 311 313 313 313 314 314 314 313 314 315 315 316 313 314 311
306 305 305 304 305 306 308 306 304 308 308 307 306 308 310 309 309 311 311 311 310 311 310 309 309 309 309 310 310 310 311 311 312 311 312 312 313 312 312 314 313 314 318 315 314 313 313
310 309 306 305 304 304 306 308 305 306 308 307 306 305 308 310 309 310 309 309 310 310 310 310 310 310 310 310 310 310 310 310 310 310 311 312 312 313 313 315 314 313 316 315 315 314 313
310 311 311 309 306 305 304 306 309 307 305 307 306 306 306 308 310 310 311 311 311 310 310 310 310 310 311 311 310 310 310 310 311 311 312 312 313 315 312 311 311 315 314 314 314 313 313
308 310 311 311 311 309 306 304 306 309 309 308 308 307 308 310 310 310 311 311 309 310 311 310 310 310 310 311 311 310 311 311 311 311 312 312 310 310 311 312 313 313 313 314 313 312 311
308 308 309 310 311 311 310 307 305 305 308 309 310 309 307 309 310 310 311 310 310 310 312 311 311 310 310 310 310 310 311 311 312 311 311 311 310 310 312 313 314 312 313 313 314 313 313
307 307 307 308 308 309 310 310 308 305 306 307 309 310 309 306 306 308 309 308 308 309 316 311 311 310 311 311 311 310 310 311 311 312 312 311 310 312 312 313 313 314 312 313 314 317 316
305 306 306 306 306 307 308 310 309 308 306 307 309 309 309 307 309 310 309 307 307 309 316 311 312 311 311 311 311 311 311 312 313 312 312 311 312 314 313 312 313 313 313 313 313 315 312
304 305 305 305 305 306 306 308 310 308 306 307 307 308 309 309 308 308 308 306 308 319 311 312 312 312 312 311 311 311 311 311 311 312 311 311 311 311 312 311 311 312 312 312 313 313 314
304 304 304 305 305 305 305 306 309 310 306 307 308 308 308 308 311 308 307 309 318 314 308 312 313 312 312 312 311 312 312 312 313 310 311 313 312 311 312 313 312 312 313 318 317 317 316
303 303 303 303 304 304 304 305 307 310 308 307 308 308 308 308 308 307 308 315 312 310 312 311 312 313 313 313 312 312 314 313 311 313 312 313 311 313 312 314 314 312 313 315 319 318 314
303 303 303 303 303 303 304 305 306 309 309 307 308 308 307 309 308 309 314 315 312 313 312 312 312 314 313 312 312 313 312 312 311 310 313 314 315 312 313 313 313 315 315 312 315 314 312
303 303 303 302 303 303 304 305 307 309 310 308 308 311 307 309 312 315 315 313 311 311 311 312 313 313 313 313 314 314 313 312 312 311 311 312 315 313 313 313 313 314 312 315 314 318 319
303 303 303 303 303 304 305 307 308 310 310 309 308 314 307 310 315 314 315 313 312 311 312 313 313 313 313 314 313 313 312 312 312 312 311 312 313 313 313 313 316 313 315 314 314 315 316
303 303 303 303 303 305 307 308 310 311 311 310 311 315 308 313 316 314 313 312 311 312 311 312 312 313 313 313 313 313 313 313 311 311 313 311 312 313 314 312 312 313 315 314 313 317 313
303 303 303 303 304 306 308 310 311 311 312 311 310 311 309 312 317 314 311 311 311 312 312 312 312 312 311 311 312 312 312 312 311 312 312 311 312 311 312 312 311 313 314 314 314 312 313
303 303 303 303 305 307 309 310 311 311 311 311 314 315 313 311 311 312 312 311 312 310 311 310 311 310 311 311 310 311 310 312 311 311 309 310 310 310 312 308 310 312 312 313 313 310 313
303 303 303 303 304 307 309 311 311 311 311 312 311 311 309 314 310 310 311 310 310 312 310 310 310 311 310 310 310 310 309 311 311 311 310 310 310 308 309 309 308 308 307 310 313 312 311
304 304 304 303 303 305 309 310 311 311 311 311 313 311 311 310 309 311 308 309 310 310 310 311 310 310 310 309 308 308 308 309 309 311 311 310 309 309 307 307 307 307 307 307 307 310 312
306 304 304 305 305 305 307 310 311 311 311 311 311 310 310 313 311 312 308 308 309 309 309 309 309 309 310 310 308 309 309 309 308 310 310 310 309 308 309 308 307 305 306 306 307 307 307
308 308 307 307 307 308 308 310 311 311 311 311 311 311 312 314 311 311 308 308 309 309 310 309 308 309 307 307 308 308 307 308 308 308 308 309 309 308 307 307 306 307 305 305 307 307 306
307 308 308 308 309 307 309 310 310 310 310 311 311 311 312 314 311 311 307 307 307 306 305 307 308 307 307 307 307 307 306 305 306 305 305 307 308 307 307 307 308 308 305 306 307 308 306
307 308 308 308 308 308 308 308 310 310 310 310 310 310 310 311 311 307 308 307 307 309 306 305 304 304 305 307 307 308 309 306 308 306 305 305 306 307 307 308 310 307 305 306 306 307 305
308 308 308 308 308 308 308 307 308 309 310 310 310 310 310 311 311 310 308 309 308 308 308 305 306 307 306 307 308 309 309 305 305 307 305 306 306 307 308 308 308 307 305 306 309 307 306
307 307 308 308 307 307 307 307 308 309 309 309 309 309 309 311 311 311 309 308 308 308 309 306 307 306 307 308 309 309 307 305 304 306 305 305 306 306 307 309 309 306 305 307 306 306 305
307 307 308 308 307 307 307 307 308 308 309 309 308 310 310 309 310 311 310 310 309 309 310 309 309 307 309 308 306 305 305 304 304 305 305 306 307 308 307 308 307 307 307 307 306 305 304
Wind_Speed
19 20 21 19 14 11 11 14 18 23 26 25 24 24 23 22 19 21 21 20 22 22 19 30 27 26 16 17 7 15 12 12 17 14 13 20 26 17 7 8 5 10 6 14 11 10 11
19 19 22 21 18 13 12 13 16 21 21 27 23 22 19 19 17 22 22 22 16 16 20 17 15 21 21 19 9 18 12 12 13 8 12 19 22 14 9 5 0 12 15 15 11 8 6
21 19 19 21 21 17 13 13 15 15 15 23 19 18 18 17 18 20 29 36 30 26 19 20 15 17 38 17 14 12 8 12 12 5 9 22 9 9 11 7 17 23 11 8 7 3 3
22 21 20 19 20 21 16 13 13 12 14 18 20 18 20 17 16 17 19 26 32 31 26 26 24 17 18 14 15 10 12 6 3 4 10 10 11 19 7 18 12 4 6 5 4 2 0
24 23 22 20 19 18 19 14 11 10 12 14 17 12 13 17 17 14 17 18 16 21 22 26 25 26 8 13 11 13 11 9 5 8 13 14 5 6 10 6 4 4 3 8 3 5 1
23 24 24 24 22 19 17 16 12 7 8 13 14 14 14 8 8 20 21 22 25 32 12 17 15 13 12 7 17 10 11 8 6 12 10 3 4 4 3 4 3 5 4 6 6 1 2
21 23 24 25 25 23 18 15 14 11 8 10 11 12 12 10 1 7 6 7 10 17 36 24 18 16 12 10 16 16 10 9 7 3 4 4 2 5 7 6 8 7 7 8 6 2 2
20 21 22 24 25 25 23 16 12 11 12 9 10 9 7 11 12 1 5 9 14 9 13 25 22 18 21 13 13 14 10 4 1 4 2 7 7 6 6 8 3 5 8 5 4 2 1
19 19 20 22 24 26 26 24 16 11 9 11 11 9 1 6 10 13 19 13 8 8 4 16 15 17 15 16 11 15 11 10 10 14 12 9 3 6 2 7 10 10 5 4 4 4 3
18 19 20 21 23 26 27 27 23 16 11 9 12 11 6 4 5 7 3 2 2 4 4 12 10 10 13 5 6 14 11 3 8 8 8 7 5 2 7 6 7 4 6 4 5 2 1
17 18 20 22 23 25 27 28 28 21 12 8 9 15 8 2 4 3 3 2 1 0 4 8 6 6 9 8 2 13 8 20 10 5 4 3 9 8 9 5 6 4 3 4 2 4 4
16 17 18 21 23 24 26 29 30 26 12 8 8 14 11 3 1 2 3 3 2 3 3 3 4 2 7 12 6 4 6 9 7 14 14 5 4 5 3 4 7 5 4 3 2 2 2
17 17 18 19 21 24 26 29 31 29 15 8 8 14 13 7 2 1 3 4 3 6 2 2 4 2 8 6 5 5 8 6 4 5 4 4 4 2 4 3 4 5 2 1 3 3 3
16 17 17 19 20 22 25 28 30 30 17 10 4 14 17 11 5 5 3 1 8 3 3 1 2 4 4 4 2 2 4 3 5 3 4 4 1 5 4 4 3 4 2 3 3 1 2
15 16 17 18 19 20 24 26 29 31 22 12 7 8 25 13 6 5 3 6 4 1 3 3 4 3 2 2 2 2 4 3 5 8 2 3 3 2 4 4 4 0 1 2 2 3 2
13 14 15 16 17 19 21 24 27 29 26 12 8 8 23 11 7 6 5 5 3 5 2 3 2 3 4 3 3 2 1 4 3 5 7 3 3 2 3 3 0 3 3 2 1 1 3
11 13 15 16 16 18 20 23 25 28 28 13 9 4 24 10 8 9 4 4 4 3 6 5 3 1 4 3 4 2 4 1 2 2 5 4 1 2 1 5 4 1 2 3 1 2 3
10 11 12 14 15 17 18 21 23 25 27 15 7 3 20 9 6 6 3 4 1 2 2 2 3 5 6 2 3 3 4 5 3 2 1 2 2 3 3 3 3 3 3 5 2 2 3
8 9 11 13 14 15 16 19 21 23 25 16 4 5 14 10 3 3 2 3 4 1 2 3 3 4 4 4 1 3 4 1 2 2 3 3 2 0 1 1 2 3 4 3 3 2 4
9 9 9 11 13 15 16 17 18 20 21 13 4 3 7 11 6 3 2 2 2 2 1 2 2 2 2 1 3 2 3 2 1 2 0 1 2 2 3 2 0 3 6 7 6 3 4
10 8 8 9 10 12 14 16 17 17 17 10 6 3 3 3 6 5 3 1 3 2 1 1 3 2 3 2 2 1 3 3 3 1 1 3 3 2 4 6 7 8 8 9 12 12 5
11 9 8 10 10 11 11 13 14 15 14 9 3 2 3 2 1 3 0 4 3 3 1 4 1 3 2 2 3 2 3 4 2 4 2 2 3 4 5 10 8 9 11 15 16 15 17
12 11 10 10 10 10 11 12 13 13 12 6 6 5 2 1 2 3 2 2 3 4 2 2 3 4 4 1 3 5 7 5 2 4 6 4 2 1 4 5 7 9 16 17 9 7 12
13 10 10 9 11 11 9 9 10 11 11 7 6 4 2 2 0 3 1 2 1 1 2 2 1 2 1 3 8 9 8 8 7 7 8 2 2 1 4 5 2 7 3 3 6 7 9
15 12 12 11 12 13 10 10 9 9 7 6 5 2 0 2 2 3 1 1 3 4 2 2 1 3 3 3 2 3 2 1 0 5 7 2 2 1 2 3 9 2 1 2 3 1 7
18 15 13 13 14 15 15 13 10 9 8 7 4 3 0 3 2 4 2 2 2 2 3 3 3 3 2 2 2 2 3 2 3 2 2 3 3 1 2 2 4 1 3 3 3 1 6
22 19 17 14 14 15 17 19 17 12 9 8 6 5 3 3 4 3 3 2 3 1 2 3 1 1 4 2 2 3 3 2 3 5 5 4 3 7 6 4 7 1 7 3 2 1 10
24 21 19 19 17 17 18 17 17 16 13 12 10 6 4 4 7 8 8 5 4 3 1 2 1 2 2 2 2 2 2 2 1 3 5 6 5 4 4 4 8 7 4 1 1 6 7
28 24 22 23 21 19 19 19 20 19 16 14 15 12 8 8 7 9 12 12 14 12 6 5 1 1 3 1 1 2 2 2 3 3 2 4 5 4 6 4 1 1 8 10 9 9 2
Wind_Direction
31 27 24 24 21 20 15 15 15 15 13 24 29 32 45 44 51 43 53 70 69 82 94 110 106 113 118 93 67 155 141 172 147 163 197 198 174 189 162 146 174 103 85 78 93 70 90
28 29 27 25 20 23 21 14 10 15 33 30 26 32 42 51 48 42 55 57 55 90 100 107 114 89 115 67 86 130 119 121 141 153 182 187 178 171 162 95 179 124 117 109 97 90 64
35 28 26 27 25 19 27 25 26 25 27 16 25 30 38 42 60 54 59 59 70 78 95 76 131 106 73 97 78 104 127 136 155 166 187 185 165 101 95 81 123 129 111 99 64 83 68
40 31 27 24 29 23 22 32 34 23 18 24 31 46 48 43 47 62 45 72 73 70 80 80 94 114 80 55 50 50 116 158 75 113 137 127 134 134 115 130 160 161 156 105 33 302 271
38 36 29 24 24 28 22 26 31 34 12 22 31 29 30 42 60 61 62 56 58 33 60 72 84 88 98 57 58 62 134 135 92 107 115 111 87 100 136 158 125 241 159 98 111 20 19
34 35 33 27 23 23 23 20 20 20 6 2 23 32 34 43 71 71 67 68 59 40 78 68 58 69 57 50 63 66 86 116 104 106 89 132 174 142 181 169 166 194 146 122 120 63 252
34 33 33 31 25 22 21 13 13 5 352 349 358 16 26 33 223 109 32 30 35 49 59 68 60 77 48 69 69 85 79 90 111 169 120 248 129 74 28 346 289 121 119 106 99 76 346
34 33 30 30 28 24 17 16 2 3 358 346 337 349 37 42 44 138 82 93 82 81 59 56 59 52 53 48 53 63 78 143 87 80 6 50 52 12 305 296 62 164 141 87 79 132 231
26 28 31 28 26 24 22 12 5 353 350 355 354 352 314 153 95 109 102 97 82 55 59 39 36 35 23 45 41 13 38 31 90 63 74 79 14 286 265 25 61 27 55 105 92 180 177
22 19 23 27 25 22 20 17 7 354 347 343 356 1 357 210 218 206 205 258 310 340 73 343 14 21 1 37 59 28 36 33 34 66 76 64 301 63 71 54 346 87 349 51 55 49 139
13 15 14 19 22 22 18 16 12 2 342 347 8 14 12 192 186 194 236 290 203 282 64 316 356 356 38 71 10 21 45 62 61 97 110 15 23 41 58 357 335 118 343 54 340 102 56
9 11 12 13 13 17 17 15 13 10 359 345 346 359 16 75 149 194 189 145 107 51 59 353 354 13 81 67 70 67 71 83 98 73 76 96 75 21 55 44 42 159 194 197 241 79 34
2 8 9 10 12 12 14 14 13 12 13 10 16 15 17 51 175 167 148 120 41 60 263 356 19 30 77 65 78 41 73 42 63 79 25 19 66 150 329 174 197 239 227 3 14 15 218
0 3 6 6 10 11 14 14 13 12 12 11 8 22 30 31 79 115 121 343 64 249 78 38 277 104 51 348 50 151 87 101 44 63 146 145 250 3 336 20 25 31 354 131 160 148 288
354 1 0 4 6 13 13 16 14 13 13 13 11 17 21 23 61 101 105 53 143 171 104 161 207 217 118 86 306 145 54 57 32 7 21 143 96 123 17 1 355 105 54 7 75 65 55
348 354 360 360 4 10 14 15 14 14 12 17 12 23 9 25 50 52 72 102 83 23 8 267 40 305 111 78 188 139 145 359 89 21 340 40 98 308 93 303 11 330 151 81 339 157 254
339 351 355 358 4 8 10 12 14 13 11 14 27 37 4 20 44 53 76 69 107 77 17 339 11 143 67 108 353 59 66 86 10 71 314 350 192 140 70 207 188 153 231 260 347 166 190
331 344 349 356 0 4 8 10 10 11 11 12 33 39 5 32 51 45 40 14 358 73 39 36 294 347 17 346 94 113 105 56 49 323 43 89 308 167 193 79 36 333 304 174 129 262 266
319 335 343 350 355 1 5 6 8 9 10 13 48 8 21 45 65 73 147 85 43 50 51 11 36 19 353 10 5 60 89 133 114 16 27 9 265 178 170 155 160 251 206 263 313 86 241
306 321 336 346 350 352 358 4 6 7 9 13 36 18 22 47 48 69 128 83 111 39 33 2 8 285 300 255 57 35 113 71 92 67 4 319 302 235 191 141 188 204 209 201 196 171 214
288 301 315 328 341 347 351 355 2 5 7 13 35 55 17 359 26 35 359 334 133 141 164 294 195 260 352 326 197 156 71 141 191 188 310 323 276 327 272 270 265 239 239 227 208 219 206
274 288 304 317 326 333 344 350 357 4 8 33 59 26 3 97 346 287 177 17 336 116 255 131 267 19 244 279 62 340 5 197 211 138 269 139 292 3 290 256 250 263 253 234 240 234 240
262 279 299 312 315 318 327 342 354 3 13 41 41 39 82 21 311 297 54 79 47 323 34 0 349 310 224 336 8 301 286 288 281 170 198 181 237 49 274 17 315 282 247 225 233 222 227
263 278 291 305 314 312 312 326 343 359 15 24 23 25 328 129 211 38 353 334 259 154 324 136 259 274 34 336 310 276 265 266 280 246 251 192 209 204 271 334 270 245 56 6 234 209 223
253 261 280 293 303 306 310 315 326 343 357 359 10 25 320 274 120 159 144 248 290 266 270 275 235 237 277 320 283 273 173 268 166 35 348 158 302 279 215 251 286 276 159 121 129 263 221
249 249 262 276 285 296 301 300 299 315 331 336 333 355 294 305 146 154 160 154 298 244 169 187 276 267 188 276 243 256 235 184 182 156 320 304 253 266 185 241 255 85 147 54 65 239 54
252 249 252 265 269 277 286 293 290 285 296 302 300 309 296 268 244 208 204 141 170 212 253 151 199 170 185 220 236 227 243 90 225 193 157 159 211 215 233 276 290 10 135 107 122 194 48
249 243 250 260 267 276 287 282 278 281 276 280 277 275 287 284 279 273 249 208 196 202 275 171 294 226 188 230 237 241 240 187 324 149 175 171 164 194 197 211 255 119 103 200 123 16 11
239 238 247 256 264 273 286 277 266 271 271 261 263 270 267 256 262 276 272 261 245 227 211 219 265 324 259 229 333 11 270 239 223 248 221 216 199 176 200 222 100 108 303 316 317 317 331